Location: Capannuccia
(43.7000°N, 11.3000°E)
Time: 10:45:26
(UTC+00:00)

STARLINK-2705 - Pass Details

Date: 30 July 2021
Orbit: 546 x 548 km, 53.1° (Epoch: 23 September)

Event Time Altitude Azimuth Distance (km) Brightness Sun altitude
Rises 20:07:03 0° 293° (WNW) 2,701 8.6 -13.7°
Reaches altitude 10° 20:09:47 10° 275° (W) 1,805 7.0 -14.1°
Maximum altitude 20:12:38 18° 231° (SW) 1,348 5.7 -14.5°
Enters shadow 20:15:13 11° 189° (S) 1,726 5.8 -14.8°
